[[{"header":{"parameterUnit":"m.s-1","parameterCategory":1,"la1":30.2991,"la2":30.254,"lo1":-89.0895,"lo2":-89.0444,"dx":0.0017,"dy":0.0017,"nx":28,"ny":28,"refTime":"2023-02-06T09:00:00:Z","depth":0,"parameterNumber":2,"parameterNumberName":"U-component_of_WINDS"},"data":[0,0,0,0,0,0,0,0,0,0,0,0,0,0,0,0,0,0,0,0,0,0,0,0,0,0,0,0,0,0,0,0,0,0,0,0,0,0,0,0,0,0,0,0,0,0,0,0,0,0,0,0,0,0,0,0,0,0,0.3575,0.3575,0,0.3545,0.3545,0.3544,0.3555,0.3555,0.3556,0.3557,0.3524,0.3522,0.3521,0,0,0,0,0,0,0,0,0,0,0,0,0,0.3641,0.364,0.3575,0.3575,0.3575,0.3545,0.3545,0.3544,0.3555,0.3555,0.3556,0.3557,0.3524,0.3522,0.352,0,0,0,0,0,0,0,0,0,0,0,0,0,0.3612,0.364,0.3575,0.3576,0.3576,0.3545,0.3545,0.3544,0.3554,0.3556,0.3557,0.3557,0.3525,0.3522,0.352,0.3486,0,0,0.3513,0.3512,0,0,0,0,0,0,0,0,0.3613,0.3609,0.3577,0.3576,0.3576,0.3555,0.3556,0.3524,0.3554,0.3563,0.3557,0.3558,0.3533,0.353,0.3522,0.3484,0.3483,0.3513,0.3512,0.3511,0.351,0,0,0,0,0,0,0,0.3615,0.3611,0.3563,0.3576,0.3576,0.3578,0.3575,0.355,0.3542,0.3562,0.3563,0.3559,0.3533,0.3524,0.3521,0.3482,0.3513,0.3511,0.351,0.3509,0.3415,0.3414,0,0,0,0,0,0,0.3618,0.3612,0.3564,0.3562,0.3598,0.3576,0.3572,0.356,0.3543,0.3541,0.3558,0.356,0.3528,0.3524,0.352,0.3479,0.3511,0.3509,0.3507,0.3416,0.3415,0.3414,0,0,0,0,0,0,0.3619,0.3614,0.3565,0.3588,0.3582,0.3574,0.356,0.3559,0.3551,0.354,0.3538,0.3551,0.3528,0.3523,0.3495,0.3478,0.3507,0.3505,0.3418,0.3416,0.3415,0.3396,0,0,0,0,0,0,0.3621,0.3614,0.3601,0.3587,0.358,0.3541,0.3559,0.3558,0.3547,0.3549,0.3532,0.3531,0.3529,0.3498,0.3492,0.3475,0.3504,0.3419,0.3417,0.3415,0.3398,0.3394,0.3391,0,0,0,0,0,0.3623,0.3597,0.36,0.3594,0.3564,0.354,0.3536,0.3534,0.3546,0.3532,0.3526,0.3531,0.3481,0.3495,0.3489,0.3471,0.342,0.3418,0.3415,0.34,0.3395,0.3391,0,0,0,0,0,0,0.3608,0.3595,0.3599,0.3567,0.3554,0.3541,0.3525,0.3529,0.3513,0.3515,0.3513,0.351,0.348,0.3473,0.3488,0.3437,0.3452,0.3448,0.3443,0.3438,0.3434,0.3436,0.3502,0,0,0,0,0,0.3601,0.3582,0.3572,0.3544,0.3538,0.3533,0.3522,0.3522,0.3509,0.3503,0.3494,0.3481,0.3462,0.345,0.3432,0.3398,0.3394,0.3382,0.3379,0.3376,0.3372,0.3354,0.3349,0.3406,0.3406,0.3406,0,0,0.3585,0.3576,0.3565,0.3541,0.3532,0.3512,0.3528,0.3507,0.3492,0.35,0.3472,0.3465,0.345,0.3419,0.3404,0.3412,0.3356,0.3372,0.337,0.3368,0.3351,0.3345,0.3341,0.3404,0.3404,0.3405,0,0,0.3548,0.3539,0.3516,0.3506,0.3492,0.3489,0.3483,0.347,0.3466,0.3438,0.3444,0.3426,0.3394,0.3383,0.3373,0.3333,0.3338,0.3327,0.3307,0.329,0.3285,0.3281,0.3267,0.3262,0.3324,0.3324,0.3324,0,0.3531,0.3503,0.3503,0.3482,0.3471,0.3478,0.3454,0.3445,0.3425,0.3418,0.3426,0.3386,0.3377,0.3343,0.3333,0.3325,0.3319,0.3329,0.3286,0.3282,0.3278,0.3265,0.3259,0.3323,0.3323,0.3323,0.3323,0,0.3482,0.3463,0.3445,0.3427,0.3415,0.3392,0.3389,0.3376,0.3378,0.3374,0.3346,0.3335,0.3315,0.3307,0.3308,0.3273,0.3279,0.3287,0.3302,0.3272,0.3259,0.3254,0.3321,0.3322,0.3322,0.3322,0,0,0.3433,0.3417,0.341,0.3402,0.3387,0.3372,0.335,0.3331,0.3321,0.3307,0.3288,0.3261,0.3269,0.3258,0.3258,0.3242,0.3212,0.3252,0.3252,0.3245,0.3174,0.3168,0.3162,0.3215,0.3214,0.3213,0.3175,0,0.3395,0.3357,0.3357,0.3321,0.3303,0.331,0.3291,0.328,0.3275,0.3259,0.3254,0.3235,0.3246,0.324,0.3225,0.3219,0.3197,0.3221,0.3197,0.3197,0.3201,0.3155,0.3148,0.3113,0.317,0.3169,0.3168,0,0.3345,0.333,0.3293,0.3282,0.3274,0.3257,0.324,0.3225,0.3212,0.321,0.3199,0.3201,0.3178,0.3195,0.3164,0.318,0.3171,0.3166,0.3165,0.3162,0.318,0.3151,0.3101,0.3096,0.3161,0.3161,0.3162,0,0.3313,0.3284,0.3259,0.3252,0.3238,0.3225,0.3219,0.3207,0.3196,0.3182,0.3175,0.3158,0.3148,0.3135,0.3132,0.3145,0.3101,0.3117,0.3099,0.3099,0.3089,0.309,0.3037,0.3083,0.3083,0.3083,0.3083,0,0.327,0.3247,0.3244,0.3228,0.3203,0.3203,0.3178,0.3173,0.3162,0.3146,0.315,0.3134,0.3133,0.3116,0.3114,0.3089,0.3084,0.3082,0.3082,0.3082,0.3082,0.3075,0.3077,0.3082,0.3082,0.3082,0.3083,0,0.323,0.3227,0.32,0.3189,0.3186,0.3168,0.3158,0.3143,0.314,0.3118,0.3113,0.3107,0.3088,0.3085,0.3062,0.3061,0.3031,0.3033,0.3035,0.3036,0.3017,0.3019,0.2958,0.295,0.3001,0.3001,0.3001,0,0.3202,0.3185,0.3173,0.3162,0.3155,0.3138,0.3127,0.3127,0.3116,0.3101,0.3087,0.3069,0.3054,0.3023,0.3017,0.3,0.3002,0.2981,0.2999,0.2999,0.3001,0.3003,0.3001,0.2978,0.2977,0.2977,0.2976,0,0.3154,0.3154,0.3139,0.3123,0.311,0.3098,0.3086,0.3077,0.3075,0.3062,0.3043,0.3031,0.3009,0.299,0.2974,0.2967,0.2971,0.2971,0.2966,0.2965,0.2968,0.2967,0.3026,0.2972,0.2973,0.2973,0.2973,0.2973,0.312,0.3105,0.3094,0.3077,0.3068,0.3057,0.3043,0.3038,0.3022,0.3004,0.3005,0.2984,0.2973,0.2951,0.2943,0.2926,0.2933,0.2925,0.2923,0.2921,0.292,0.297,0.2923,0.2923,0.2923,0.2923,0.2924,0,0.3072,0.3066,0.305,0.3034,0.302,0.3027,0.3014,0.3002,0.2984,0.2973,0.2959,0.2937,0.292,0.2913,0.2895,0.2884,0.2885,0.2879,0.288,0.2879,0.2915,0.2921,0.2878,0.2878,0.2878,0.2878,0.2878,0.2878,0.3046,0.3021,0.302,0.2991,0.2985,0.2965,0.2957,0.2947,0.2939,0.2915,0.29,0.2896,0.2887,0.2869,0.2853,0.2852,0.2845,0.2838,0.2837,0.2871,0.2876,0.288,0.2886,0.2837,0.2836,0.2802,0.2802,0.2802]},{"header":{"parameterUnit":"m.s-1","parameterCategory":1,"la1":30.2991,"la2":30.254,"lo1":-89.0895,"lo2":-89.0444,"dx":0.0017,"dy":0.0017,"nx":28,"ny":28,"refTime":"2023-02-06T09:00:00:Z","depth":0,"parameterNumber":3,"parameterNumberName":"V-component_of_WINDS"},"data":[0,0,0,0,0,0,0,0,0,0,0,0,0,0,0,0,0,0,0,0,0,0,0,0,0,0,0,0,0,0,0,0,0,0,0,0,0,0,0,0,0,0,0,0,0,0,0,0,0,0,0,0,0,0,0,0,0,0,-2.0581,-2.0583,0,-2.0729,-2.073,-2.0732,-2.0754,-2.0753,-2.0751,-2.075,-2.0897,-2.0902,-2.0907,0,0,0,0,0,0,0,0,0,0,0,0,0,-2.0315,-2.032,-2.0581,-2.0583,-2.0585,-2.0728,-2.073,-2.0732,-2.0754,-2.0752,-2.0751,-2.0749,-2.0895,-2.0901,-2.0907,0,0,0,0,0,0,0,0,0,0,0,0,0,-2.0443,-2.0321,-2.0581,-2.0613,-2.0617,-2.0728,-2.073,-2.0733,-2.0754,-2.0752,-2.075,-2.0749,-2.0893,-2.09,-2.0908,-2.0995,0,0,-2.0931,-2.0935,0,0,0,0,0,0,0,0,-2.0436,-2.0453,-2.0606,-2.0611,-2.0616,-2.0721,-2.069,-2.0821,-2.0755,-2.0702,-2.075,-2.0748,-2.0839,-2.0851,-2.0883,-2.1002,-2.1008,-2.0932,-2.0937,-2.094,-2.0942,0,0,0,0,0,0,0,-2.0427,-2.0447,-2.0639,-2.0608,-2.0614,-2.0619,-2.0635,-2.0715,-2.078,-2.0707,-2.0709,-2.0726,-2.0842,-2.0876,-2.0887,-2.1011,-2.0932,-2.0939,-2.0944,-2.0947,-2.121,-2.1212,0,0,0,0,0,0,-2.0413,-2.0439,-2.0635,-2.0644,-2.0519,-2.0626,-2.0643,-2.0689,-2.0779,-2.0791,-2.0728,-2.0727,-2.0864,-2.0878,-2.0892,-2.1001,-2.094,-2.0947,-2.0952,-2.1207,-2.121,-2.1213,0,0,0,0,0,0,-2.0407,-2.043,-2.0629,-2.0542,-2.0568,-2.0632,-2.0683,-2.0693,-2.0727,-2.0795,-2.0806,-2.0751,-2.0863,-2.0881,-2.097,-2.1007,-2.0951,-2.0958,-2.1205,-2.1208,-2.1211,-2.1219,0,0,0,0,0,0,-2.0399,-2.0428,-2.0462,-2.0543,-2.0572,-2.0705,-2.0686,-2.0697,-2.0741,-2.0741,-2.082,-2.0831,-2.0862,-2.0959,-2.0978,-2.1016,-2.0964,-2.1202,-2.1206,-2.121,-2.1216,-2.1223,-2.1228,0,0,0,0,0,-2.039,-2.0457,-2.0464,-2.0487,-2.0617,-2.0707,-2.0724,-2.076,-2.0744,-2.0779,-2.0823,-2.0828,-2.1,-2.0967,-2.0989,-2.103,-2.1199,-2.1205,-2.121,-2.1213,-2.1221,-2.1228,0,0,0,0,0,0,-2.0377,-2.0468,-2.0477,-2.0572,-2.0632,-2.0711,-2.0756,-2.0767,-2.0831,-2.0829,-2.0869,-2.0887,-2.0974,-2.1011,-2.0974,-2.112,-2.1098,-2.1108,-2.1093,-2.1101,-2.1107,-2.1096,-2.097,0,0,0,0,0,-2.0386,-2.0453,-2.0528,-2.0605,-2.0635,-2.069,-2.0731,-2.0754,-2.0817,-2.0842,-2.0892,-2.0951,-2.1019,-2.1062,-2.1127,-2.1222,-2.1239,-2.1261,-2.1267,-2.1272,-2.128,-2.1333,-2.1344,-2.123,-2.123,-2.123,0,0,-2.0404,-2.0462,-2.0501,-2.0605,-2.0653,-2.0721,-2.0711,-2.0783,-2.0833,-2.0852,-2.094,-2.0979,-2.1048,-2.114,-2.1183,-2.1173,-2.1315,-2.1278,-2.1282,-2.1287,-2.1339,-2.135,-2.136,-2.1234,-2.1233,-2.1233,0,0,-2.0472,-2.0522,-2.0593,-2.0643,-2.0718,-2.0754,-2.0771,-2.0849,-2.0876,-2.0965,-2.0981,-2.1041,-2.1156,-2.1205,-2.1245,-2.1333,-2.1341,-2.1353,-2.1385,-2.1436,-2.1445,-2.1453,-2.1485,-2.1496,-2.1361,-2.1361,-2.1361,0,-2.0484,-2.0588,-2.0627,-2.0699,-2.0744,-2.0766,-2.0838,-2.0884,-2.0976,-2.1006,-2.0994,-2.114,-2.1188,-2.1293,-2.1315,-2.1346,-2.1366,-2.1344,-2.1441,-2.145,-2.1458,-2.1489,-2.15,-2.1362,-2.1362,-2.1362,-2.1362,0,-2.06,-2.0671,-2.0719,-2.081,-2.086,-2.0931,-2.0981,-2.1027,-2.1046,-2.1083,-2.1174,-2.1233,-2.1311,-2.1338,-2.1356,-2.1445,-2.1437,-2.1433,-2.1411,-2.1469,-2.1499,-2.1511,-2.1363,-2.1363,-2.1363,-2.1362,0,0,-2.0662,-2.0775,-2.0792,-2.0834,-2.0919,-2.0975,-2.1047,-2.1126,-2.1165,-2.1228,-2.1289,-2.1387,-2.1384,-2.143,-2.1454,-2.1499,-2.1566,-2.149,-2.1492,-2.1502,-2.1668,-2.1671,-2.1684,-2.1572,-2.1574,-2.1576,-2.1663,0,-2.074,-2.0871,-2.0909,-2.1019,-2.1086,-2.1109,-2.1172,-2.1231,-2.1269,-2.133,-2.137,-2.1439,-2.143,-2.1458,-2.1504,-2.1548,-2.16,-2.1542,-2.1629,-2.1631,-2.1611,-2.1699,-2.1702,-2.1781,-2.1674,-2.1676,-2.1678,0,-2.0847,-2.0915,-2.1032,-2.1111,-2.114,-2.1196,-2.1272,-2.1331,-2.1398,-2.1422,-2.1474,-2.1495,-2.157,-2.1545,-2.165,-2.161,-2.1647,-2.1674,-2.1678,-2.1687,-2.1658,-2.1711,-2.1806,-2.1818,-2.1696,-2.1695,-2.1693,0,-2.0882,-2.1001,-2.1088,-2.1123,-2.1216,-2.1255,-2.1296,-2.1361,-2.1406,-2.1472,-2.1502,-2.1575,-2.1615,-2.1671,-2.1711,-2.1688,-2.1812,-2.179,-2.1833,-2.1832,-2.1858,-2.1856,-2.1961,-2.1882,-2.1882,-2.1882,-2.1881,0,-2.0964,-2.1035,-2.1105,-2.1157,-2.1238,-2.1281,-2.1359,-2.14,-2.1458,-2.1519,-2.1543,-2.1599,-2.1648,-2.1711,-2.1742,-2.1825,-2.1842,-2.1863,-2.187,-2.1861,-2.1858,-2.1886,-2.1881,-2.1885,-2.1884,-2.1884,-2.1883,0,-2.1015,-2.1065,-2.116,-2.1242,-2.1264,-2.132,-2.1389,-2.1441,-2.148,-2.1557,-2.1577,-2.1637,-2.1713,-2.1758,-2.1852,-2.1874,-2.1964,-2.197,-2.1942,-2.1946,-2.1987,-2.1982,-2.2113,-2.2133,-2.2041,-2.2042,-2.2043,0,-2.1065,-2.112,-2.1209,-2.1252,-2.1294,-2.1363,-2.141,-2.1455,-2.1503,-2.1585,-2.1627,-2.1704,-2.1768,-2.1887,-2.1938,-2.2011,-2.2018,-2.2059,-2.2029,-2.2018,-2.2019,-2.2015,-2.2021,-2.2064,-2.2064,-2.2065,-2.2066,0,-2.1147,-2.1169,-2.1237,-2.1315,-2.1371,-2.1433,-2.1495,-2.1529,-2.1584,-2.1637,-2.1715,-2.1765,-2.1863,-2.1939,-2.2017,-2.2057,-2.207,-2.2075,-2.2089,-2.208,-2.2062,-2.2072,-2.1956,-2.2071,-2.2071,-2.207,-2.207,-2.207,-2.1199,-2.125,-2.1321,-2.1396,-2.1448,-2.1506,-2.1559,-2.1606,-2.1673,-2.1757,-2.178,-2.1862,-2.1928,-2.2034,-2.2076,-2.214,-2.2134,-2.2154,-2.2159,-2.2163,-2.2165,-2.2052,-2.2155,-2.2154,-2.2154,-2.2154,-2.2154,0,-2.1283,-2.133,-2.1399,-2.1487,-2.1546,-2.1556,-2.1625,-2.1674,-2.1746,-2.1808,-2.1872,-2.1962,-2.2037,-2.2095,-2.2171,-2.2211,-2.2219,-2.223,-2.2227,-2.2236,-2.2166,-2.2146,-2.2222,-2.2222,-2.2222,-2.2222,-2.2222,-2.2222,-2.1334,-2.1421,-2.1452,-2.1565,-2.1611,-2.1694,-2.1733,-2.1786,-2.1836,-2.1936,-2.1999,-2.2038,-2.2098,-2.2179,-2.2248,-2.2263,-2.229,-2.2299,-2.2315,-2.2248,-2.2241,-2.2234,-2.2216,-2.2305,-2.2305,-2.238,-2.2381,-2.2382]}]]